Weather History for K2WX - September, 2013

Change the Weather History Date:

Wednesday, September 18, 2013

  Actual Average Record
Temperature  
Mean Temperature 66 °F 57 °F  
Max Temperature 80 °F 71 °F 98 °F (2004)
Min Temperature 51 °F 43 °F 33 °F (2006)
Degree Days  
Heating Degree Days 0 9  
Month to date heating degree days 10 102  
Since 1 July heating degree days 22 154  
Cooling Degree Days 1 1  
Month to date cooling degree days 96 38  
Year to date cooling degree days 583 509  
Growing Degree Days 16 (Base 50)    
Moisture  
Dew Point 53 °F    
Average Humidity 68    
Maximum Humidity 100    
Minimum Humidity 35    
Precipitation  
Precipitation 0.00 in 0.04 in 0.03 in (2006)
Month to date precipitation 1.84 0.76  
Year to date precipitation 11.32 12.90  
Sea Level Pressure  
Sea Level Pressure 29.58 in    
Wind  
Wind Speed 11 mph (NW)    
Max Wind Speed 40 mph    
Max Gust Speed 51 mph    
T = Trace of Precipitation, MM = Missing Value Source: NWS Daily Summary

Daily Weather History Graph

Daily Weather History Graph

Search for Another Location

Airport or City:

Trip Planner

Search our weather history database for the weather conditions in past years. The results will help you decide how hot, cold, wet, or windy it might be!

Date:

Astronomy

Sep. 18, 2013 Rise Set
Actual Time 6:36 AM MDT 6:58 PM MDT
Civil Twilight 6:06 AM MDT 7:28 PM MDT
Nautical Twilight 5:31 AM MDT 8:03 PM MDT
Astronomical Twilight 4:55 AM MDT 8:39 PM MDT
Moon 6:22 PM MDT (9/18) 5:41 AM MDT (9/18)
Length of Visible Light 13h 21m
Length of Day
12h 22m
Waxing Gibbous, 99% of the Moon is Illuminated
Sep 18
Waxing Gibbous
Sep 19
Full
Sep 26
Last Quarter
Oct 4
New
Oct 11
First Quarter

Hourly Weather History & Observations

Time (MDT) Temp. Dew Point Humidity Pressure Visibility Wind Dir Wind Speed Gust Speed Precip Events Conditions
12:56 AM 62.1 °F 57.0 °F 84% 29.52 in - North 10.4 mph - N/A   Unknown
1:56 AM 62.1 °F 57.0 °F 84% 29.52 in - NNE 10.4 mph - N/A   Unknown
2:56 AM 61.0 °F 59.0 °F 93% 29.54 in - Variable 3.5 mph - N/A   Unknown
3:56 AM 57.9 °F 55.9 °F 93% 29.53 in - WNW 5.8 mph - N/A   Unknown
4:47 AM 59.0 °F 55.9 °F 90% 29.57 in - North 8.1 mph - N/A   Unknown
4:56 AM 59.0 °F 55.9 °F 90% 29.49 in - North 6.9 mph - N/A   Unknown
5:56 AM 57.0 °F 55.0 °F 93% 29.51 in - SW 4.6 mph - N/A   Unknown
6:56 AM 55.9 °F 55.0 °F 97% 29.55 in - West 6.9 mph - N/A   Unknown
7:56 AM 57.9 °F 55.0 °F 90% 29.55 in - West 5.8 mph - N/A   Unknown
8:56 AM 64.0 °F 55.9 °F 75% 29.54 in - SW 6.9 mph - N/A   Unknown
9:56 AM 69.1 °F 55.9 °F 63% 29.54 in - WNW 12.7 mph - N/A   Unknown
10:56 AM 71.1 °F 55.9 °F 59% 29.54 in - West 9.2 mph - N/A   Unknown
11:56 AM 75.0 °F 53.1 °F 46% 29.53 in - NW 9.2 mph 17.3 mph N/A   Unknown
12:56 PM 78.1 °F 51.1 °F 39% 29.54 in - NW 13.8 mph - N/A   Unknown
1:56 PM 79.0 °F 48.9 °F 35% 29.53 in - NW 9.2 mph - N/A   Unknown
2:56 PM 78.1 °F 48.9 °F 36% 29.54 in - NW 11.5 mph 20.7 mph N/A   Unknown
3:56 PM 73.0 °F 48.9 °F 42% 29.57 in - NNW 13.8 mph - N/A   Unknown
4:56 PM 77.0 °F 48.9 °F 37% 29.57 in - NNW 18.4 mph 24.2 mph N/A   Unknown
5:56 PM 72.0 °F 50.0 °F 46% 29.60 in - NW 9.2 mph - N/A   Unknown
6:56 PM 64.0 °F 54.0 °F 70% 29.63 in - WNW 10.4 mph - N/A   Unknown
7:56 PM 63.0 °F 52.0 °F 67% 29.68 in - WNW 23.0 mph 31.1 mph N/A   Unknown
8:56 PM 57.9 °F 45.0 °F 62% 29.72 in - NW 23.0 mph - N/A   Unknown
9:56 PM 54.0 °F 46.0 °F 75% 29.74 in - NW 16.1 mph - N/A   Unknown
10:56 PM 55.0 °F 46.0 °F 72% 29.76 in - WNW 16.1 mph 21.9 mph N/A   Unknown
11:56 PM 54.0 °F 46.9 °F 77% 29.77 in - WNW 13.8 mph - N/A   Unknown